DW1980 Weather Reports


Display with metric or nautical units.
time (UTC)temp
F
wind
direction
speed
MPH
gust
MPH
rain 1hr
in
rain 24hr
in
rain mn
in
humidity
%
barometer
mb
20260504173106 70 271 3.0 13.0 0.00 0.00 0.00 43 1011.0
20260504173046 70 265 5.0 13.0 0.00 0.00 0.00 39 1010.3
20260504172913 71 271 6.0 13.0 0.00 0.00 0.00 38 1011.0
20260504172420 71 240 5.0 13.0 0.00 0.00 0.00 40 1011.0
20260504171844 70 315 4.0 9.0 0.00 0.00 0.00 40 1011.1
20260504171605 69 234 5.0 9.0 0.00 0.00 0.00 43 1011.3
20260504171547 68 217 5.0 11.0 0.00 0.00 0.00 43 1010.5
20260504171350 69 184 7.0 9.0 0.00 0.00 0.00 41 1011.3
20260504170840 70 228 2.0 14.0 0.00 0.00 0.00 44 1011.3
20260504170411 69 221 4.0 14.0 0.00 0.00 0.00 42 1011.4
20260504170110 69 92 7.0 14.0 0.00 0.00 0.00 40 1011.5
20260504160407 68 166 6.0 11.0 0.00 0.00 0.00 39 1012.1
20260504160112 68 186 4.0 10.0 0.00 0.00 0.00 45 1012.3
20260504150851 66 53 5.0 14.0 0.00 0.00 0.00 42 1012.8
20260504150343 66 284 5.0 13.0 0.00 0.00 0.00 43 1012.8
20260504150112 65 222 5.0 13.0 0.00 0.00 0.00 41 1013.1
20260504140847 62 230 5.0 9.0 0.00 0.00 0.00 48 1013.2
20260504140339 61 202 4.0 8.0 0.00 0.00 0.00 48 1013.2
20260504130344 57 228 3.0 5.0 0.00 0.00 0.00 53 1013.8
20260504130111 56 192 2.0 5.0 0.00 0.00 0.00 53 1014.0
20260504120110 52 188 2.0 8.0 0.00 0.00 0.00 61 1014.3
20260504110345 42 221 2.0 2.0 0.00 0.00 0.00 85 1013.9
20260504110107 41 215 1.0 2.0 0.00 0.00 0.00 86 1014.1
20260504100343 41 256 0.0 2.0 0.00 0.00 0.00 85 1013.7
20260504100120 40 256 0.0 3.0 0.00 0.00 0.00 85 1013.9
20260504081848 39 270 0.0 0.0 0.00 0.00 0.00 88 1013.5
20260504081614 38 270 0.0 0.0 0.00 0.00 0.00 88 1013.7
20260504081541 38 0 0.0 0.0 0.00 0.00 0.00 87 1012.9
20260504081338 39 276 0.0 0.0 0.00 0.00 0.00 88 1013.5
20260504080850 39 284 0.0 0.0 0.00 0.00 0.00 88 1013.5
20260504080340 39 285 0.0 0.0 0.00 0.00 0.00 88 1013.3
20260504080116 38 285 0.0 0.0 0.00 0.00 0.00 88 1013.5
20260504070355 39 285 0.0 0.0 0.00 0.00 0.00 88 1013.2
20260504070121 39 285 0.0 0.0 0.00 0.00 0.00 88 1013.4
20260504060116 38 288 0.0 0.0 0.00 0.00 0.00 89 1013.1
20260504050357 39 288 0.0 0.0 0.00 0.00 0.00 86 1012.7
20260504050117 38 288 0.0 0.0 0.00 0.00 0.00 86 1012.9
20260504045844 39 288 0.0 0.0 0.00 0.00 0.00 86 1012.7
20260504045353 39 288 0.0 0.0 0.00 0.00 0.00 86 1012.7
20260504044843 39 288 0.0 0.0 0.00 0.00 0.00 85 1012.7
20260504044614 39 288 0.0 0.0 0.00 0.00 0.00 85 1012.8
20260504044543 39 0 0.0 0.0 0.00 0.00 0.00 85 1012.0
20260504044415 39 288 0.0 0.0 0.00 0.00 0.00 85 1012.6
20260504043843 39 288 0.0 0.0 0.00 0.00 0.00 85 1012.6
20260504043354 39 288 0.0 0.0 0.00 0.00 0.00 85 1012.6
20260504043119 39 288 0.0 0.0 0.00 0.00 0.00 85 1012.7
20260504043049 39 0 0.0 0.0 0.00 0.00 0.00 84 1012.0
20260504042841 40 288 0.0 0.0 0.00 0.00 0.00 84 1012.6
20260504042351 40 288 0.0 0.0 0.00 0.00 0.00 84 1012.6
20260504041841 40 288 0.0 0.0 0.00 0.00 0.00 84 1012.4
20260504041608 39 288 0.0 0.0 0.00 0.00 0.00 84 1012.5
20260504041541 39 0 0.0 0.0 0.00 0.00 0.00 83 1011.8
20260504041351 40 288 0.0 0.0 0.00 0.00 0.00 84 1012.4
20260504040841 40 288 0.0 0.0 0.00 0.00 0.00 83 1012.4
20260504040351 40 288 0.0 0.0 0.00 0.00 0.00 83 1012.4
20260504040125 40 288 0.0 0.0 0.00 0.00 0.00 83 1012.5
20260504040041 40 0 0.0 0.0 0.00 0.00 0.00 82 1011.7
20260504035837 40 288 0.0 0.0 0.00 0.00 0.00 83 1012.3
20260504035407 41 288 0.0 0.0 0.00 0.00 0.00 83 1012.4
20260504034835 41 288 0.0 1.0 0.00 0.00 0.00 82 1012.4
20260504034603 40 288 0.0 1.0 0.00 0.00 0.00 82 1012.5
20260504034544 40 0 0.0 1.0 0.00 0.00 0.00 81 1011.7
20260504034347 41 288 0.0 1.0 0.00 0.00 0.00 81 1012.5
20260504033837 41 288 0.0 0.0 0.00 0.00 0.00 81 1012.4
20260504033347 41 288 0.0 0.0 0.00 0.00 0.00 81 1012.3
20260504033112 41 288 0.0 0.0 0.00 0.00 0.00 81 1012.5
20260504033040 41 0 0.0 0.0 0.00 0.00 0.00 80 1011.7
20260504032855 42 288 0.0 0.0 0.00 0.00 0.00 80 1012.4
20260504032345 42 288 0.0 0.0 0.00 0.00 0.00 80 1012.4
20260504031836 42 288 0.0 1.0 0.00 0.00 0.00 79 1012.3
20260504031604 41 288 0.0 1.0 0.00 0.00 0.00 79 1012.5
20260504031545 41 0 0.0 1.0 0.00 0.00 0.00 78 1011.6
20260504031346 42 288 0.0 1.0 0.00 0.00 0.00 78 1012.4
20260504030837 42 288 0.0 1.0 0.00 0.00 0.00 78 1012.3
20260504030348 42 288 0.0 0.0 0.00 0.00 0.00 77 1012.3
20260504030113 42 288 0.0 0.0 0.00 0.00 0.00 77 1012.5
20260504030047 42 0 0.0 0.0 0.00 0.00 0.00 76 1011.7
20260504025916 43 288 0.0 0.0 0.00 0.00 0.00 76 1012.3
20260504025345 43 288 0.0 0.0 0.00 0.00 0.00 76 1012.4
20260504024838 43 288 0.0 0.0 0.00 0.00 0.00 75 1012.4
20260504024605 43 288 0.0 0.0 0.00 0.00 0.00 75 1012.6
20260504024540 43 0 0.0 0.0 0.00 0.00 0.00 75 1011.8
20260504024350 43 288 0.0 0.0 0.00 0.00 0.00 75 1012.5
20260504023838 43 288 0.0 0.0 0.00 0.00 0.00 74 1012.5
20260504023349 44 288 0.0 0.0 0.00 0.00 0.00 74 1012.4
20260504023109 43 288 0.0 0.0 0.00 0.00 0.00 74 1012.5
20260504023040 43 0 0.0 0.0 0.00 0.00 0.00 73 1011.7
20260504022916 44 288 0.0 0.0 0.00 0.00 0.00 73 1012.4
20260504022343 44 288 0.0 0.0 0.00 0.00 0.00 73 1012.4
20260504021851 44 288 0.0 0.0 0.00 0.00 0.00 72 1012.4
20260504021538 44 0 0.0 0.0 0.00 0.00 0.00 70 1011.7
20260504021503 44 288 0.0 0.0 0.00 0.00 0.00 71 1012.5
20260504021402 45 288 0.0 0.0 0.00 0.00 0.00 71 1012.3
20260504020851 45 288 0.0 0.0 0.00 0.00 0.00 70 1012.2
20260504020342 45 288 0.0 0.0 0.00 0.00 0.00 69 1012.3
20260504020043 45 0 0.0 0.0 0.00 0.00 0.00 68 1011.7
20260504015336 46 288 0.0 0.0 0.00 0.00 0.00 68 1012.2
20260504014846 46 288 0.0 0.0 0.00 0.00 0.00 68 1012.2
20260504014610 46 288 0.0 0.0 0.00 0.00 0.00 68 1012.2
20260504014543 46 0 0.0 1.0 0.00 0.00 0.00 68 1011.6
20260504014337 47 288 0.0 1.0 0.00 0.00 0.00 68 1012.2
20260504013908 47 288 0.0 1.0 0.00 0.00 0.00 67 1012.2
20260504013357 48 288 0.0 1.0 0.00 0.00 0.00 66 1012.1
20260504013119 47 288 0.0 2.0 0.00 0.00 0.00 65 1012.1
20260504013043 47 0 0.0 2.0 0.00 0.00 0.00 65 1011.5
20260504012843 48 288 0.0 2.0 0.00 0.00 0.00 65 1012.1
20260504012353 48 288 0.0 2.0 0.00 0.00 0.00 64 1012.1
20260504011844 49 288 0.0 1.0 0.00 0.00 0.00 62 1012.0
20260504011613 48 288 0.0 1.0 0.00 0.00 0.00 62 1012.2
20260504011546 49 0 0.0 1.0 0.00 0.00 0.00 62 1011.4
20260504011354 49 288 0.0 1.0 0.00 0.00 0.00 62 1012.0
20260504010902 50 288 0.0 1.0 0.00 0.00 0.00 61 1011.9
20260504010414 50 288 0.0 1.0 0.00 0.00 0.00 60 1011.8
20260504010111 50 288 0.0 1.0 0.00 0.00 0.00 58 1011.9
20260504010041 50 0 0.0 1.0 0.00 0.00 0.00 58 1011.2
20260504005918 51 288 0.0 1.0 0.00 0.00 0.00 57 1011.7
20260504005405 51 288 0.0 1.0 0.00 0.00 0.00 56 1011.6
20260504004915 52 288 0.0 1.0 0.00 0.00 0.00 54 1011.6
20260504004622 51 288 0.0 2.0 0.00 0.00 0.00 54 1011.7
20260504004538 52 0 0.0 2.0 0.00 0.00 0.00 53 1011.0
20260504004344 52 288 0.0 2.0 0.00 0.00 0.00 52 1011.6
20260504003836 53 288 1.0 2.0 0.00 0.00 0.00 52 1011.5
20260504003348 54 288 0.0 1.0 0.00 0.00 0.00 52 1011.4
20260504003119 53 288 0.0 1.0 0.00 0.00 0.00 50 1011.5
20260504003037 53 0 0.0 1.0 0.00 0.00 0.00 50 1010.8
20260504002836 54 288 0.0 1.0 0.00 0.00 0.00 49 1011.3
20260504002346 55 288 0.0 2.0 0.00 0.00 0.00 47 1011.2
20260504001837 55 288 0.0 2.0 0.00 0.00 0.00 45 1011.1
20260504001609 55 288 0.0 2.0 0.00 0.00 0.00 45 1011.2
20260504001544 55 288 1.0 3.0 0.00 0.00 0.00 44 1010.6
20260504001347 55 288 2.0 2.0 0.00 0.00 0.00 43 1011.1
20260504000837 56 289 0.0 4.0 0.00 0.00 0.00 42 1011.0
20260504000348 56 291 1.0 4.0 0.00 0.00 0.00 41 1010.9
20260504000130 56 291 1.0 4.0 0.00 0.00 0.00 41 1011.0
20260504000047 56 292 2.0 5.0 0.00 0.00 0.00 40 1010.4
20260503235855 56 299 2.0 5.0 0.00 0.00 0.00 40 1010.9
20260503235407 56 284 2.0 9.0 0.00 0.00 0.00 41 1010.8
20260503234837 56 292 4.0 9.0 0.00 0.00 0.00 39 1010.7
20260503234605 56 298 2.0 7.0 0.00 0.00 0.00 40 1010.8
20260503234540 56 291 2.0 7.0 0.00 0.00 0.00 40 1010.3
20260503234348 57 305 3.0 7.0 0.00 0.00 0.00 39 1010.7
20260503233836 57 311 1.0 5.0 0.00 0.00 0.00 40 1010.6
20260503233348 57 286 2.0 5.0 0.00 0.00 0.00 38 1010.5
20260503233111 57 297 1.0 5.0 0.00 0.00 0.00 38 1010.6
20260503233038 57 287 2.0 6.0 0.00 0.00 0.00 37 1010.1
20260503232855 57 277 3.0 5.0 0.00 0.00 0.00 37 1010.5
20260503232345 58 311 3.0 5.0 0.00 0.00 0.00 36 1010.4
20260503231836 58 324 1.0 8.0 0.00 0.00 0.00 38 1010.3
20260503231605 57 275 3.0 11.0 0.00 0.00 0.00 39 1010.4
20260503231543 58 298 2.0 11.0 0.00 0.00 0.00 39 1009.9
20260503231347 58 296 2.0 11.0 0.00 0.00 0.00 36 1010.3
20260503230837 58 293 3.0 8.0 0.00 0.00 0.00 36 1010.3
20260503230349 58 295 2.0 15.0 0.00 0.00 0.00 35 1010.2
20260503230116 58 294 3.0 15.0 0.00 0.00 0.00 35 1010.3
20260503230059 58 279 6.0 15.0 0.00 0.00 0.00 36 1009.8
20260503225836 58 342 7.0 13.0 0.00 0.00 0.00 35 1010.2
20260503225346 58 274 3.0 8.0 0.00 0.00 0.00 35 1010.1
20260503224840 58 279 3.0 15.0 0.00 0.00 0.00 35 1010.1
20260503224602 58 271 4.0 15.0 0.00 0.00 0.00 35 1010.1
20260503224536 58 302 6.0 15.0 0.00 0.00 0.00 34 1009.6
20260503224348 58 293 7.0 15.0 0.00 0.00 0.00 34 1010.1
20260503223839 58 338 3.0 8.0 0.00 0.00 0.00 35 1010.1
20260503223411 58 293 3.0 10.0 0.00 0.00 0.00 35 1010.0
20260503223110 57 265 4.0 10.0 0.00 0.00 0.00 34 1010.1
20260503223042 58 263 3.0 10.0 0.00 0.00 0.00 33 1009.6
20260503222837 58 301 3.0 10.0 0.00 0.00 0.00 34 1010.0
20260503222347 58 284 3.0 13.0 0.00 0.00 0.00 33 1010.0
20260503221838 58 280 6.0 13.0 0.00 0.00 0.00 35 1010.1
20260503221602 58 256 4.0 13.0 0.00 0.00 0.00 35 1010.1
20260503221538 58 293 6.0 14.0 0.00 0.00 0.00 33 1009.6
20260503221349 58 280 7.0 14.0 0.00 0.00 0.00 33 1010.0
20260503220839 58 323 6.0 14.0 0.00 0.00 0.00 33 1010.1
20260503220350 59 284 3.0 16.0 0.00 0.00 0.00 35 1010.1
20260503220112 58 276 5.0 16.0 0.00 0.00 0.00 32 1010.2
20260503220040 58 306 7.0 16.0 0.00 0.00 0.00 33 1009.6
20260503215857 59 319 7.0 16.0 0.00 0.00 0.00 33 1010.2
20260503215345 59 273 8.0 15.0 0.00 0.00 0.00 33 1010.1
20260503214916 59 292 6.0 16.0 0.00 0.00 0.00 33 1010.1
20260503214603 58 69 6.0 16.0 0.00 0.00 0.00 33 1010.2
20260503214542 58 229 5.0 16.0 0.00 0.00 0.00 32 1009.5
20260503214345 59 250 4.0 16.0 0.00 0.00 0.00 35 1010.0
20260503213855 59 291 7.0 15.0 0.00 0.00 0.00 34 1010.0
20260503213345 59 279 8.0 17.0 0.00 0.00 0.00 32 1009.9
20260503213111 58 288 6.0 17.0 0.00 0.00 0.00 34 1010.0
20260503213043 58 355 8.0 20.0 0.00 0.00 0.00 33 1009.4
20260503212853 59 224 9.0 20.0 0.00 0.00 0.00 34 1009.9
20260503212342 59 277 8.0 20.0 0.00 0.00 0.00 36 1009.8
20260503211915 58 64 3.0 16.0 0.00 0.00 0.00 36 1009.9
20260503211622 58 290 5.0 16.0 0.00 0.00 0.00 36 1009.9
20260503211558 58 267 6.0 16.0 0.00 0.00 0.00 35 1009.3
20260503211344 58 275 8.0 16.0 0.00 0.00 0.00 36 1010.0
20260503210854 58 246 6.0 15.0 0.00 0.00 0.00 36 1009.9
20260503210345 58 263 5.0 14.0 0.00 0.00 0.00 36 1009.9
20260503210112 58 279 5.0 14.0 0.00 0.00 0.00 39 1010.0
20260503210039 58 310 5.0 14.0 0.00 0.00 0.00 36 1009.4
20260503205912 58 309 5.0 14.0 0.00 0.00 0.00 36 1009.8
20260503205404 58 277 5.0 14.0 0.00 0.00 0.00 38 1009.8
20260503204855 58 276 6.0 17.0 0.00 0.00 0.00 36 1009.8
20260503204602 58 292 4.0 17.0 0.00 0.00 0.00 40 1009.9
20260503204540 58 284 6.0 17.0 0.00 0.00 0.00 37 1009.3
20260503204344 58 279 9.0 17.0 0.00 0.00 0.00 38 1009.8
20260503203914 58 259 4.0 16.0 0.00 0.00 0.00 37 1009.8
20260503203403 58 249 6.0 16.0 0.00 0.00 0.00 37 1009.9
20260503203106 58 258 6.0 16.0 0.00 0.00 0.00 38 1010.0
20260503203046 57 250 6.0 18.0 0.00 0.00 0.00 36 1009.3
20260503202848 58 269 5.0 18.0 0.00 0.00 0.00 37 1010.0
20260503202338 58 336 8.0 18.0 0.00 0.00 0.00 37 1010.0
20260503201849 57 281 5.0 16.0 0.00 0.00 0.00 38 1010.0
20260503201617 57 258 8.0 22.0 0.00 0.00 0.00 37 1010.2
20260503201540 57 297 7.0 22.0 0.00 0.00 0.00 35 1009.4
20260503201340 58 202 6.0 22.0 0.00 0.00 0.00 37 1010.1
20260503200850 58 300 8.0 16.0 0.00 0.00 0.00 39 1010.1
20260503200342 58 261 8.0 15.0 0.00 0.00 0.00 39 1010.0
20260503200108 58 265 5.0 15.0 0.00 0.00 0.00 38 1010.1
20260503200054 58 5 6.0 19.0 0.00 0.00 0.00 38 1009.4
20260503195851 58 286 7.0 19.0 0.00 0.00 0.00 38 1010.1
20260503195400 58 346 4.0 19.0 0.00 0.00 0.00 40 1010.0
20260503194849 58 253 5.0 19.0 0.00 0.00 0.00 40 1010.2
20260503194617 57 259 7.0 21.0 0.00 0.00 0.00 39 1010.2
20260503194544 57 276 8.0 21.0 0.00 0.00 0.00 38 1009.6
20260503194338 58 302 7.0 21.0 0.00 0.00 0.00 40 1010.2
20260503193848 58 17 5.0 16.0 0.00 0.00 0.00 41 1010.2
20260503193340 58 240 8.0 22.0 0.00 0.00 0.00 41 1010.2
20260503193117 57 206 6.0 22.0 0.00 0.00 0.00 40 1010.3
20260503193047 57 313 8.0 22.0 0.00 0.00 0.00 39 1009.6
20260503192847 58 292 11.0 22.0 0.00 0.00 0.00 39 1010.3
20260503192336 58 324 5.0 23.0 0.00 0.00 0.00 40 1010.4
20260503191847 58 254 7.0 24.0 0.00 0.00 0.00 42 1010.4
20260503191615 57 265 4.0 15.0 0.00 0.00 0.00 42 1010.4
20260503191543 57 286 7.0 15.0 0.00 0.00 0.00 40 1009.6
20260503191342 57 292 7.0 13.0 0.00 0.00 0.00 41 1010.4
20260503190851 57 304 7.0 12.0 0.00 0.00 0.00 40 1010.6
20260503190343 57 289 4.0 17.0 0.00 0.00 0.00 42 1010.5
20260503190107 56 186 5.0 17.0 0.00 0.00 0.00 42 1010.7
20260503190050 56 299 7.0 17.0 0.00 0.00 0.00 41 1010.0
20260503185849 57 255 9.0 17.0 0.00 0.00 0.00 45 1010.7
20260503185338 56 221 5.0 14.0 0.00 0.00 0.00 42 1010.7
20260503184847 56 273 8.0 15.0 0.00 0.00 0.00 48 1010.8
20260503184611 55 275 5.0 15.0 0.00 0.00 0.00 50 1010.9
20260503184543 54 299 4.0 15.0 0.00 0.00 0.00 45 1010.1
20260503184337 54 319 6.0 15.0 0.00 0.00 0.00 47 1010.7
20260503183847 54 294 6.0 14.0 0.00 0.00 0.00 46 1010.8
20260503183358 55 295 3.0 16.0 0.00 0.00 0.00 46 1010.8
20260503183118 55 355 9.0 19.0 0.00 0.00 0.00 42 1010.9
20260503183044 55 288 6.0 19.0 0.00 0.00 0.00 42 1010.2
20260503182844 56 319 7.0 19.0 0.00 0.00 0.00 46 1010.9
20260503182413 58 325 5.0 15.0 0.00 0.00 0.00 44 1010.9
20260503181841 56 311 7.0 15.0 0.00 0.00 0.00 47 1010.8
20260503181636 55 30 4.0 15.0 0.00 0.00 0.00 47 1010.8
20260503181602 55 310 5.0 15.0 0.00 0.00 0.00 47 1010.1
20260503181352 55 337 5.0 15.0 0.00 0.00 0.00 45 1010.7
20260503180841 55 311 5.0 23.0 0.00 0.00 0.00 45 1010.8
20260503180414 55 240 10.0 23.0 0.00 0.00 0.00 44 1010.7
20260503180118 54 306 5.0 20.0 0.00 0.00 0.00 45 1010.9
20260503180050 54 308 8.0 20.0 0.00 0.00 0.00 46 1010.2
20260503175839 55 276 6.0 20.0 0.00 0.00 0.00 44 1010.9
20260503175350 55 351 8.0 17.0 0.00 0.00 0.00 44 1011.0
20260503174840 56 355 6.0 18.0 0.00 0.00 0.00 44 1010.7
20260503174609 55 28 5.0 18.0 0.00 0.00 0.00 46 1011.0
20260503174546 55 303 6.0 19.0 0.00 0.00 0.00 47 1010.2
20260503174412 54 311 8.0 19.0 0.00 0.00 0.00 46 1010.9
20260503173840 53 27 8.0 19.0 0.00 0.00 0.00 47 1010.8
20260503173349 54 327 10.0 19.0 0.00 0.00 0.00 48 1011.0